Location: Carrières
(48.9495°N, 2.0407°E)
Time: 09:41:59
(UTC+00:00)

RESURS P4 - Visible Passes

Search period start: 24 July 2024 00:00
Search period end: 03 August 2024 00:00
Orbit: 464 x 467 km, 97.2° (Epoch: 24 July)

Date Brightness Start Highest point End Pass type
(mag) Time Alt. Az. Time Alt. Az. Time Alt. Az.
24 Jul ? 02:13:01 10° NNE 02:16:17 36° E 02:18:54 14° SSE visible
25 Jul ? 01:43:43 10° NE 01:46:04 17° E 01:48:24 10° SE visible
25 Jul ? 03:16:04 10° N 03:19:19 37° WNW 03:22:30 10° SW visible
26 Jul ? 02:45:51 10° NNE 02:49:22 87° W 02:52:07 16° SSW visible
27 Jul ? 02:15:58 10° NNE 02:19:16 39° E 02:21:44 16° SSE visible
28 Jul ? 01:46:32 10° NE 01:49:02 18° E 01:51:19 11° SE visible
28 Jul ? 03:19:02 10° N 03:22:15 34° WNW 03:25:17 11° SW visible
29 Jul ? 02:48:45 10° N 02:52:15 80° WNW 02:54:52 17° SSW visible
30 Jul ? 02:18:46 10° NNE 02:22:08 42° E 02:24:25 18° SSE visible
31 Jul ? 01:49:15 10° NE 01:51:52 19° E 01:53:58 12° SE visible
31 Jul ? 03:21:53 10° N 03:25:03 32° WNW 03:27:56 11° SW visible
01 Aug ? 02:51:31 10° N 02:55:02 74° WNW 02:57:29 18° SSW visible
02 Aug ? 02:21:28 10° NNE 02:24:52 46° E 02:26:59 20° SSE visible
